Date,TemperatureHighF,TemperatureAvgF,TemperatureLowF,DewpointHighF,DewpointAvgF,DewpointLowF,HumidityHigh,HumidityAvg,HumidityLow,PressureMaxIn,PressureMinIn,WindSpeedMaxMPH,WindSpeedAvgMPH,GustSpeedMaxMPH,PrecipitationSumIn
2013-2-1,21.4,17.9,14.4,16.0,13.6,11.0,92,83,69,30.17,29.60,19,9,29,0.19
2013-2-2,18.0,14.6,10.8,12.0,10.7,8.0,92,84,73,30.19,30.00,13,2,15,0.00
2013-2-3,25.4,18.1,10.7,17.0,13.4,9.0,91,82,63,30.00,29.78,10,2,15,0.01
2013-2-4,18.3,15.9,12.4,16.0,12.9,10.0,92,88,79,29.94,29.79,12,5,22,0.01
2013-2-5,23.5,16.9,10.4,20.0,11.7,8.0,92,80,68,30.00,29.87,8,2,10,0.00
2013-2-6,26.7,21.4,12.8,23.0,15.1,6.0,91,77,54,30.37,29.87,22,7,26,0.00
2013-2-7,25.9,18.2,9.1,15.0,8.6,4.0,80,67,56,30.50,30.25,13,5,19,0.00
2013-2-8,28.1,24.7,21.0,24.0,20.1,13.0,95,83,57,30.24,29.81,26,10,31,0.00
2013-2-9,23.3,14.8,9.5,23.0,12.2,7.0,100,89,80,30.40,29.89,15,7,26,0.00
2013-2-10,33.0,21.9,13.4,21.0,14.5,12.0,93,75,46,30.48,30.16,7,2,12,0.01
2013-2-11,33.9,33.6,33.2,30.0,29.0,28.0,86,83,81,29.68,29.67,15,11,27,0.06
2013-2-12,33.3,31.2,28.6,29.0,27.0,24.0,92,84,75,29.92,29.66,25,13,36,0.06
2013-2-13,36.0,30.5,28.0,25.0,22.8,20.0,86,73,57,29.88,29.71,15,4,19,0.00
2013-2-14,37.4,31.0,24.3,32.0,24.6,20.0,94,78,63,29.93,29.73,11,3,16,0.01
2013-2-15,37.7,33.5,24.7,32.0,27.3,20.0,94,79,60,29.98,29.81,21,6,26,0.01
2013-2-16,26.5,22.4,17.1,23.0,13.9,7.0,90,71,52,30.00,29.88,12,4,17,0.01
2013-2-17,16.7,12.3,9.2,9.0,5.6,2.0,88,74,63,30.04,29.82,20,8,33,0.01
2013-2-18,23.3,14.5,5.3,11.0,7.6,3.0,88,75,58,30.27,30.04,23,4,26,0.00
2013-2-19,38.9,30.3,23.4,33.0,23.4,12.0,95,77,56,30.07,29.61,18,5,28,0.07
2013-2-20,25.6,21.5,18.4,21.0,15.7,11.0,89,78,61,29.93,29.68,23,15,35,0.07
2013-2-21,18.2,14.7,10.8,16.0,12.5,9.0,100,91,87,30.43,29.91,19,7,26,0.00
2013-2-22,33.0,25.4,17.0,26.0,21.1,15.0,93,84,72,30.43,30.14,16,6,22,0.02
2013-2-23,37.2,34.6,31.0,36.0,31.6,24.0,97,89,75,30.13,29.82,14,4,22,0.04
2013-2-24,34.7,29.5,27.8,34.0,26.7,24.0,96,89,78,29.98,29.80,13,5,22,0.04
2013-2-25,34.7,30.4,26.1,31.0,27.1,-99.9,97,90,79,30.23,29.98,14,4,20,0.06
2013-2-26,41.8,33.6,25.8,31.0,26.1,21.0,89,74,58,30.25,29.92,19,8,27,0.06
2013-2-27,36.4,33.5,30.3,35.0,31.9,29.0,97,94,85,29.93,29.53,24,8,30,0.23
2013-2-28,35.5,33.4,31.6,34.0,32.4,31.0,97,96,92,29.63,29.52,7,2,10,0.29